DW4554 Weather Reports


time (UTC)temp
C
wind
direction
speed
KPH
gust
KPH
rain 1hr
cm
rain 24hr
cm
rain mn
cm
humidity
%
barometer
mb
20260504150404 26 124 6.4 12.9 0.00 0.00 0.00 31 1010.9
20260504140904 26 178 4.8 16.1 0.00 0.00 0.00 32 1011.4
20260504110404 23 170 8.0 22.5 0.00 0.00 0.00 41 1013.0
20260504100404 22 184 8.0 24.1 0.00 0.00 0.00 41 1013.6
20260504081904 20 173 8.0 24.1 0.00 0.00 0.00 40 1014.1
20260504081404 20 159 4.8 14.5 0.00 0.00 0.00 41 1014.2
20260504080904 20 186 6.4 19.3 0.00 0.00 0.00 41 1014.1
20260504080404 20 167 6.4 19.3 0.00 0.00 0.00 42 1014.1
20260504070405 18 104 4.8 12.9 0.00 0.00 0.00 49 1013.9
20260504050404 12 69 3.2 9.7 0.00 0.00 0.00 65 1014.4
20260504045904 11 104 1.6 4.8 0.00 0.00 0.00 66 1014.4
20260504045404 11 96 1.6 3.2 0.00 0.00 0.00 66 1014.5
20260504044904 11 56 1.6 4.8 0.00 0.00 0.00 67 1014.4
20260504044404 11 80 1.6 4.8 0.00 0.00 0.00 66 1014.4
20260504043404 10 34 0.0 4.8 0.00 0.00 0.00 66 1014.4
20260504042905 10 129 1.6 4.8 0.00 0.00 0.00 67 1014.3
20260504041904 10 42 1.6 3.2 0.00 0.00 0.00 67 1014.3
20260504041404 10 42 1.6 4.8 0.00 0.00 0.00 67 1014.3
20260504040904 10 48 1.6 4.8 0.00 0.00 0.00 68 1014.3
20260504040405 10 54 1.6 4.8 0.00 0.00 0.00 68 1014.3
20260504035404 9 70 1.6 4.8 0.00 0.00 0.00 68 1014.4
20260504034904 9 69 1.6 4.8 0.00 0.00 0.00 67 1014.4
20260504034404 10 59 1.6 4.8 0.00 0.00 0.00 67 1014.4
20260504033904 10 61 1.6 4.8 0.00 0.00 0.00 67 1014.5
20260504033404 10 76 0.0 3.2 0.00 0.00 0.00 66 1014.4
20260504032904 10 76 1.6 4.8 0.00 0.00 0.00 66 1014.5
20260504031404 10 182 0.0 3.2 0.00 0.00 0.00 65 1014.6
20260504030904 10 193 0.0 3.2 0.00 0.00 0.00 65 1014.6
20260504030404 10 202 0.0 3.2 0.00 0.00 0.00 64 1014.5
20260504025904 10 58 1.6 3.2 0.00 0.00 0.00 65 1014.5
20260504025405 10 56 1.6 4.8 0.00 0.00 0.00 64 1014.5
20260504024904 10 56 1.6 4.8 0.00 0.00 0.00 64 1014.5
20260504024404 10 56 1.6 4.8 0.00 0.00 0.00 64 1014.5
20260504023404 10 59 1.6 4.8 0.00 0.00 0.00 64 1014.5
20260504022920 10 73 1.6 3.2 0.00 0.00 0.00 63 1014.3
20260504021904 10 73 1.6 4.8 0.00 0.00 0.00 62 1014.2
20260504020905 10 72 1.6 4.8 0.00 0.00 0.00 62 1014.2
20260504020404 10 71 1.6 8.0 0.00 0.00 0.00 61 1014.2
20260504015907 11 56 0.0 3.2 0.00 0.00 0.00 61 1014.2
20260504015404 11 57 1.6 4.8 0.00 0.00 0.00 61 1014.2
20260504014904 11 57 3.2 4.8 0.00 0.00 0.00 60 1014.2
20260504014404 11 57 3.2 4.8 0.00 0.00 0.00 60 1014.2
20260504013904 11 61 3.2 4.8 0.00 0.00 0.00 60 1014.2
20260504013404 11 55 3.2 4.8 0.00 0.00 0.00 59 1014.2
20260504012904 11 56 3.2 4.8 0.00 0.00 0.00 59 1014.2
20260504012404 11 56 1.6 3.2 0.00 0.00 0.00 58 1014.3
20260504011904 11 56 1.6 3.2 0.00 0.00 0.00 58 1014.2
20260504011405 11 56 1.6 4.8 0.00 0.00 0.00 58 1014.2
20260504010404 11 56 3.2 4.8 0.00 0.00 0.00 57 1014.2
20260504005904 11 59 3.2 4.8 0.00 0.00 0.00 57 1014.2
20260504005405 11 98 1.6 3.2 0.00 0.00 0.00 57 1014.2
20260504004404 12 55 1.6 4.8 0.00 0.00 0.00 56 1014.2
20260504003904 12 75 1.6 4.8 0.00 0.00 0.00 56 1014.2
20260504003404 12 77 1.6 4.8 0.00 0.00 0.00 55 1014.3
20260504002904 12 73 1.6 3.2 0.00 0.00 0.00 55 1014.3
20260504002404 12 73 1.6 4.8 0.00 0.00 0.00 54 1014.3
20260504001405 13 65 1.6 3.2 0.00 0.00 0.00 53 1014.3
20260504000404 13 63 0.0 3.2 0.00 0.00 0.00 52 1014.3
20260503235904 13 63 1.6 4.8 0.00 0.00 0.00 51 1014.4
20260503235405 13 62 1.6 4.8 0.00 0.00 0.00 51 1014.4
20260503234404 13 80 1.6 4.8 0.00 0.00 0.00 50 1014.4
20260503233904 13 134 1.6 8.0 0.00 0.00 0.00 49 1014.4
20260503233404 13 61 1.6 4.8 0.00 0.00 0.00 49 1014.4
20260503232905 13 91 0.0 4.8 0.00 0.00 0.00 49 1014.4
20260503232404 13 68 1.6 4.8 0.00 0.00 0.00 49 1014.4
20260503231404 13 132 3.2 14.5 0.00 0.00 0.00 48 1014.4
20260503230905 13 66 1.6 29.0 0.00 0.00 0.00 49 1014.4
20260503230404 13 158 1.6 9.7 0.00 0.00 0.00 49 1014.4
20260503225904 13 126 3.2 8.0 0.00 0.00 0.00 49 1014.4
20260503225404 14 68 1.6 8.0 0.00 0.00 0.00 49 1014.4
20260503224905 14 293 1.6 8.0 0.00 0.00 0.00 49 1014.5
20260503224404 14 84 1.6 4.8 0.00 0.00 0.00 49 1014.5
20260503223905 14 109 1.6 11.3 0.00 0.00 0.00 49 1014.5
20260503223405 14 10 3.2 8.0 0.00 0.00 0.00 49 1014.4
20260503222904 14 67 3.2 8.0 0.00 0.00 0.00 49 1014.5
20260503222405 14 60 1.6 8.0 0.00 0.00 0.00 49 1014.5
20260503221904 14 50 1.6 4.8 0.00 0.00 0.00 49 1014.6
20260503221404 14 70 1.6 4.8 0.00 0.00 0.00 49 1014.6
20260503220904 14 97 3.2 9.7 0.00 0.00 0.00 49 1014.5
20260503220404 14 78 1.6 8.0 0.00 0.00 0.00 49 1014.6
20260503215905 14 24 3.2 8.0 0.00 0.00 0.00 50 1014.6
20260503215404 14 65 3.2 8.0 0.00 0.00 0.00 50 1014.6
20260503214904 13 56 1.6 8.0 0.00 0.00 0.00 50 1014.6
20260503214404 13 129 1.6 9.7 0.00 0.00 0.00 50 1014.6
20260503213404 13 92 1.6 8.0 0.00 0.00 0.00 51 1014.7
20260503212904 13 55 3.2 9.7 0.00 0.00 0.00 51 1014.7
20260503211904 13 100 3.2 11.3 0.00 0.00 0.00 51 1014.7
20260503211404 13 75 1.6 4.8 0.00 0.00 0.00 51 1014.7
20260503210908 13 83 1.6 4.8 0.00 0.00 0.00 52 1014.7
20260503205904 13 71 1.6 4.8 0.00 0.00 0.00 52 1014.8
20260503204904 13 69 1.6 4.8 0.00 0.00 0.00 52 1014.9
20260503204404 13 67 1.6 3.2 0.00 0.00 0.00 52 1014.9
20260503203904 14 64 1.6 3.2 0.00 0.00 0.00 52 1014.9
20260503203404 14 63 0.0 3.2 0.00 0.00 0.00 52 1014.9
20260503202904 14 63 1.6 4.8 0.00 0.00 0.00 51 1015.0
20260503202405 14 59 3.2 4.8 0.00 0.00 0.00 51 1014.9
20260503201904 14 85 3.2 4.8 0.00 0.00 0.00 50 1015.0
20260503201404 14 96 1.6 3.2 0.00 0.00 0.00 50 1015.0
20260503200904 15 96 1.6 3.2 0.00 0.00 0.00 50 1015.0
20260503200404 15 98 1.6 8.0 0.00 0.00 0.00 49 1015.0
20260503195905 15 90 1.6 3.2 0.00 0.00 0.00 49 1015.0
20260503195404 15 92 1.6 4.8 0.00 0.00 0.00 49 1015.0
20260503194904 15 54 3.2 4.8 0.00 0.00 0.00 49 1015.0
20260503194404 15 50 3.2 4.8 0.00 0.00 0.00 49 1015.0
20260503193904 15 51 1.6 4.8 0.00 0.00 0.00 49 1015.1
20260503193404 15 52 1.6 4.8 0.00 0.00 0.00 49 1015.1
20260503192904 15 50 3.2 4.8 0.00 0.00 0.00 48 1015.1
20260503191905 16 60 1.6 4.8 0.00 0.00 0.00 48 1015.0
20260503191404 16 59 3.2 4.8 0.00 0.00 0.00 47 1015.0
20260503190904 16 73 3.2 4.8 0.00 0.00 0.00 47 1014.9
20260503190404 17 84 3.2 4.8 0.00 0.00 0.00 47 1014.9
20260503185904 17 71 1.6 4.8 0.00 0.00 0.00 47 1014.9
20260503185404 17 147 3.2 4.8 0.00 0.00 0.00 46 1014.9
20260503184405 18 147 1.6 4.8 0.00 0.00 0.00 43 1014.9
20260503183904 18 147 1.6 3.2 0.00 0.00 0.00 42 1014.8
20260503183405 18 147 0.0 3.2 0.00 0.00 0.00 40 1014.8
20260503182904 19 147 1.6 3.2 0.00 0.00 0.00 39 1014.7
20260503182404 19 147 1.6 4.8 0.00 0.00 0.00 38 1014.6
20260503181904 19 147 1.6 4.8 0.00 0.00 0.00 37 1014.6
20260503181404 20 147 1.6 4.8 0.00 0.00 0.00 37 1014.5
20260503180905 20 147 1.6 4.8 0.00 0.00 0.00 37 1014.5
20260503175904 20 157 1.6 4.8 0.00 0.00 0.00 36 1014.5
20260503175405 20 161 1.6 8.0 0.00 0.00 0.00 35 1014.4
20260503174904 20 138 1.6 11.3 0.00 0.00 0.00 35 1014.4
20260503174405 20 177 1.6 8.0 0.00 0.00 0.00 35 1014.4
20260503173404 21 164 1.6 8.0 0.00 0.00 0.00 34 1014.4
20260503172404 21 150 4.8 11.3 0.00 0.00 0.00 33 1014.3
20260503171904 21 156 1.6 11.3 0.00 0.00 0.00 33 1014.4
20260503171404 21 183 4.8 9.7 0.00 0.00 0.00 32 1014.3
20260503170904 21 197 4.8 14.5 0.00 0.00 0.00 32 1014.3
20260503170405 21 198 4.8 11.3 0.00 0.00 0.00 31 1014.3
20260503150904 25 176 6.4 12.9 0.00 0.00 0.00 30 1014.4